Location: Buffign�court
(47.8126°N, 6.0176°E)
Time: 20:23:01
(UTC+00:00)

Meteor 2-1 Rocket - Pass Details

Date: 16 June 2021
Orbit: 828 x 908 km, 81.3° (Epoch: 23 July)

Event Time Altitude Azimuth Distance (km) Brightness Sun altitude
Rises 22:38:00 0° 351° (N) 3,382 9.1 -17.6°
Reaches altitude 10° 22:40:27 10° 355° (N) 2,445 7.9 -17.7°
Maximum altitude 22:45:54 59° 75° (ENE) 962 4.5 -17.9°
Enters shadow 22:48:44 28° 144° (SE) 1,516 5.0 -18.0°
